Location: ??????
(41.3164°N, 22.6615°E)
Time: 21:46:39
(UTC+00:00)

Cosmos 1953 - Pass Details

Date: 16 October 2021
Orbit: 537 x 557 km, 82.5° (Epoch: 29 November)

Event Time Altitude Azimuth Distance (km) Brightness Sun altitude
Rises 16:33:36 0° 171° (S) 2,716 5.8 -9.5°
Reaches altitude 10° 16:35:49 10° 165° (SSE) 1,829 4.9 -9.9°
Maximum altitude 16:39:38 44° 93° (E) 782 2.6 -10.7°
Drops below altitude 10° 16:43:31 10° 21° (NNE) 1,850 4.8 -11.4°
Sets 16:45:46 0° 15° (NNE) 2,751 5.7 -11.8°
